• Join FlightAware (Why Join?)
  • Login
  • US Flag 
12:07AM EST


 

Airport Tracker/Info


-or-


 

Live Flight TrackerFlight Track Log ✈ GGA1 ✈ 16-May-2013 ✈ KAHN - KINT

Flight Track Log - Related Links

Times and Time Zones

All times are in EDT time to prevent confusion due to time zone crossing. See the GGA1 flight status page for this flight to view local times or setup timezone preferences in your user account.

Time Position Orientation Groundspeed Altitude Reporting Facility
EDT Latitude Longitude Course Direction KTS MPH feet Rate Location/Type
06:35AM 33.9833 -83.2333 48° Northeast 161 185 3,800  Level Atlanta TRACON
06:36AM 34.0208 -83.1742 53° Northeast 174 200 5,900 1,714 Climbing Atlanta Center
06:37AM 34.0539 -83.1336 45° Northeast 174 200 8,000 2,050 Climbing Atlanta Center
06:38AM 34.0933 -83.0956 39° Northeast 174 200 10,000 2,000 Climbing Atlanta Center
06:39AM 34.2476 -82.9255 48° Northeast  Level FlightAware Approximate
06:39AM 34.1408 -83.0525 37° Northeast 180 207 12,000  Level Atlanta Center
06:40AM 34.2987 -82.8573 48° Northeast  Level FlightAware Approximate
06:40AM 34.1803 -83.0117 41° Northeast 180 207 14,100  Level Atlanta Center
06:41AM 34.2236 -82.9686 39° Northeast 185 213 15,800 1,700 Climbing Atlanta Center
06:42AM 34.2692 -82.9303 35° Northeast 192 221 17,500 1,650 Climbing Atlanta Center
06:43AM 34.3128 -82.8844 41° Northeast 204 235 19,100 1,650 Climbing Atlanta Center
06:44AM 34.3603 -82.8411 37° Northeast 204 235 20,800 950 Climbing Atlanta Center
06:45AM 34.4139 -82.7822 42° Northeast 234 269 21,000 100 Climbing Atlanta Center
06:46AM 34.4800 -82.7258 35° Northeast 274 315 21,000  Level Atlanta Center
06:47AM 34.5358 -82.6669 41° Northeast 283 326 21,000  Level Atlanta Center
06:48AM 34.5978 -82.6006 41° Northeast 288 331 21,000  Level Atlanta Center
06:49AM 34.6658 -82.5386 37° Northeast 293 337 21,000  Level Atlanta Center
06:50AM 34.7275 -82.4744 41° Northeast 293 337 21,000  Level Atlanta Center
06:51AM 34.7936 -82.4100 39° Northeast 298 343 21,000  Level Atlanta Center
06:52AM 34.8656 -82.3400 39° Northeast 298 343 21,000  Level Atlanta Center
06:53AM 34.9294 -82.2756 40° Northeast 298 343 21,000  Level Atlanta Center
06:54AM 34.9953 -82.2158 37° Northeast 298 343 21,000  Level Atlanta Center
06:55AM 35.0592 -82.1508 40° Northeast 293 337 21,000  Level Atlanta Center
06:56AM 35.1206 -82.0886 40° Northeast 293 337 21,000  Level Atlanta Center
06:57AM 35.1864 -82.0236 39° Northeast 293 337 21,000  Level Atlanta Center
06:58AM 35.2500 -81.9583 40° Northeast 298 343 21,000  Level Atlanta Center
06:59AM 35.3114 -81.8958 40° Northeast 293 337 21,000  Level Atlanta Center
07:00AM 35.3772 -81.8303 39° Northeast 293 337 21,000  Level Atlanta Center
07:01AM 35.4325 -81.7728 40° Northeast 293 337 21,000  Level Atlanta Center
07:02AM 35.4958 -81.7097 39° Northeast 293 337 21,000  Level Atlanta Center
07:03AM 35.5528 -81.6317 48° Northeast 298 343 21,000  Level Atlanta Center
07:04AM 35.6011 -81.5458 55° Northeast 299 344 21,000  Level Atlanta Center
07:05AM 35.6597 -81.4572 51° Northeast 299 344 21,000  Level Atlanta Center
07:06AM 35.7103 -81.3739 53° Northeast 299 344 21,000 -200 Level Atlanta Center
07:07AM 35.7625 -81.2903 52° Northeast 305 351 20,600 -750 Descending Atlanta Center
07:08AM 35.8169 -81.2014 53° Northeast 312 359 19,500 -1,100 Descending Atlanta Center
07:09AM 35.8733 -81.1147 51° Northeast 317 365 18,400 -950 Descending Atlanta Center
07:10AM 35.9233 -81.0336 53° Northeast 317 365 17,600 -1,000 Descending Atlanta Center
07:11AM 35.9775 -80.9469 52° Northeast 317 365 16,400 -1,190 Descending Atlanta Center
07:12AM 36.0297 -80.8600 53° Northeast 317 365 15,200 -1,250 Descending Atlanta Center
07:13AM 36.0856 -80.7681 53° Northeast 329 379 13,900 -1,441 Descending Atlanta Center
07:15AM 36.1575 -80.5747 65° Northeast 303 349 10,900 -1,167 Descending Atlanta Center
07:16AM 36.1381 -80.4753 104° East 292 336 10,400 -1,150 Descending Atlanta Center
07:17AM 36.1056 -80.3689 111° Southeast 292 336 8,600 -1,700 Descending Atlanta Center
07:18AM 36.0756 -80.2750 112° Southeast 297 342 7,000 -1,650 Descending Atlanta Center
07:19AM 36.0403 -80.2100 124° Southeast 266 306 5,300 -1,835 Descending Atlanta Center
07:20AM 36.0642 -80.1781 47° Northeast 137 158 3,300 -1,550 Descending Atlanta Center
07:21AM 36.0911 -80.1664 19° North 95 109 2,200 -1,119 Descending Atlanta Center
07:24AM 36.1333 -80.2167 292° West  Level FlightAware Approximate
07:31AM 36.1337 -80.2220 292° West  Level Estimated